Location: Liscomb Game Sanctuary
(45.1633°N, 62.5575°W)
Time: 23:42:07

Cosmos 1452 Rocket - Pass Details

Date: 22 February 2018
Orbit: 768 x 774 km, 74.1° (Epoch: 23 March)

Event Time Altitude Azimuth Distance (km) Brightness Sun altitude
Rises 18:22:14 0° 340° (NNW) 3,256 6.9 -6.8°
Reaches altitude 10° 18:24:38 10° 342° (NNW) 2,324 6.2 -7.2°
Maximum altitude 18:29:55 73° 68° (ENE) 808 3.5 -8.1°
Drops below altitude 10° 18:35:08 10° 153° (SSE) 2,304 5.8 -9.0°
Sets 18:37:31 0° 155° (SSE) 3,226 6.5 -9.5°
